Location: Roland
(31.1349°N, 85.4372°W)
Time: 19:52:31
(UTC+00:00)

ISS - Visible Passes

Search period start: 05 March 2021 00:00
Search period end: 15 March 2021 00:00
Orbit: 417 x 422 km, 51.6° (Epoch: 05 March)

Date Brightness Start Highest point End Pass type
(mag) Time Alt. Az. Time Alt. Az. Time Alt. Az.
10 Mar -1.4 11:01:47 10° NNW 11:04:31 22° NE 11:07:14 10° E visible
11 Mar -0.9 10:14:59 10° N 10:16:51 14° NE 10:18:44 10° ENE visible
12 Mar -3.7 11:03:02 10° NW 11:06:24 78° NE 11:09:44 10° SE visible
13 Mar -2.5 10:17:57 31° N 10:18:52 39° NE 10:22:02 10° ESE visible
14 Mar -0.5 09:33:15 14° E 09:33:15 14° E 09:33:59 10° E visible
14 Mar -2.6 11:06:16 16° W 11:08:01 25° SW 11:10:48 10° S visible
